CZ-2D DEB, 35271

Orbit data source: Space-Track

CZ-2D DEB, 35271 is space debris in SSO originally from a launch on Tue, 05 Jul 2005 UTC launched from the Jiuquan Satellite Launch Center, China (JSC). Debris objects in space refer to the collection of defunct objects orbiting the Earth. Examples of debris include non-operational satellites, rocket bodies, and fragments generated from explosions, collisions, or faulty payload assembly.

Not visible in the next 10 days
Identifier
35271, 2005-024K
Orbit
SSO
Country
Flag of CNCN / PRC
Related business
Manufacturer
Unknown
Mission
Spacecraft
Bus & Motor
Unknown
Mass
Unknown
Launch date (UTC)
2005-07-05 (21 years ago)
Launch vehicle
Unknown
Launch site
Jiuquan Satellite Launch Center, China (JSC)
Object type
Payload
Rocket body
Debris
Shape & HBR
Unknown shape, 0.1 m
Radar Cross Section
Small (<0.1 m²)

Expand to show TLE details & history
Last TLE update: 6 days ago

TLE from 6 days ago
0 CZ-2D DEB
1 35271U 05024K   26167.36819318  .00155346  10767-4  51182-3 0  9999
2 35271  97.1576 204.6081 0005857 155.8476 204.3073 15.90461388104578
Epoch: 2026-06-16T08:50Z
TLE epoch observation values (Epoch: 2026-06-16T08:50:11.890Z)
Latitude
-0.00009°
Longitude
167.41734°
Altitude
307.75 km
Speed
7.721 km/s
True Right ascension
13h 38m 25s
True Declination
0° 00' 00"
Sunlit
Object was in full shadow at epoch
Visualization orbit readout
Latitude
Unknown
Longitude
Unknown
Altitude
Unknown
Speed
Unknown
Apparent Right ascension
Unknown
Apparent Declination
Unknown
Sunlit
N/A
Visualization observer readout
Local Sidereal Time
23:18:39
Azimuth
Unknown
Elevation
Unknown
Doppler factor
Unknown
Orbital elements
Apogee altitude
301.763 km
Perigee altitude
293.942 km
Semi-major axis
6,675.99 km
Eccentricity
0.00059
Inclination
97.1576°
RAAN
204.6081°
Arg. of periapsis
155.8476°
True anomaly
204.27969°
Mean anomaly
204.3073°
Eccentric anomaly
204.29349°
Mean motion
3.97896 °/min
Orbital period
90.48 mins
BSTAR
0.00051182
Loading maneuver chart data...
Computing Atmospheric mass density...
Loading historical data...
Loading historical data...
Loading historical data...
Loading historical data...
Loading historical data...
Loading historical data...
Loading historical data...

Documentation

Showing up to 5 results
|